San Antonio Del Tachira Airport

Jump to: basic info | weather | frequencies | runways | comments

Related pages: nearby airports | nearby navaids | notams | map

Basic information (top)

Codes: SVZ SVSA
Location: lon 7.840830, lat -72.439697, elev 1,312 ft / 400 m msl
Status: medium_airport

Weather (top)

Current conditions (rec'd 2015/03/06 06:00Z):

SVSA 060600Z /////KT 9999 BKN020 24/21 Q1014

Airport forecast (rec'd 2015/02/07 18:27Z):

TAF TAF SVSA 071600Z 0718/0818 18010KT 9999 FEW020 TX32/18Z TN24/07Z 
      BECMG 0718/0722 9999 SCT020 
     FM071530 00000KT 9000 VCFG SCT020

Frequencies (top)

Verify before use: may be inaccurate or out of date.

GND: 121.9 MHz (GND)
TWR: 118.5 MHz (TWR)

Runways (top)

17/35: 6,135 x 131 ft (1,870 x 40 m) — paved — lighted

Latest comments (top)

No comments yet for San Antonio Del Tachira Airport

More... (top)

See also NOTAMs and nearby airports and navaids, or visit the San Antonio Del Tachira Airport page at the main OurAirports website..